User: anonymous   Login
Location: Unspecified
(0.0000°N, 0.0000°E)
Time: 00:40:56
(UTC+00:00)
Language:

USA 93 - Orbit

View from above orbital plane
View from above orbital plane
View from above satellite
View from above satellite

Ground track
Ground track

The orbit data is extracted from the following two-line orbital elements,

1 22719U 93046A   20053.41811672 +.00000032 +00000-0 +00000-0 0  9998
2 22719 011.9078 030.0914 0006374 348.2013 168.6770 00.99049097002348
Epoch (UTC): 22 February 2020 10:02:05
Eccentricity: 0.0006374
inclination: 11.9078°
perigee height: 36105 km
apogee height: 36159 km
right ascension of ascending node: 30.0914°
argument of perigee: 348.2013°
revolutions per day: 0.99049097
mean anomaly at epoch: 168.6770°
orbit number at epoch: 234

The dashed part of the orbit path shows where the satellite is in the earth's shadow,  

DLR